Location: Arthez
(43.0833°N, 0.2500°W)
Time: 23:18:35
(UTC+00:00)

deb Kosmos-970 - Pass Details

Date: 23 August 2022
Orbit: 900 x 1112 km, 65.8° (Epoch: 28 September)

Event Time Altitude Azimuth Distance (km) Brightness Sun altitude
Rises 01:12:02 0° 311° (NW) 3,913 ? -33.2°
Reaches altitude 10° 01:16:06 10° 290° (WNW) 2,921 ? -33.0°
Enters shadow 01:16:10 10° 289° (WNW) 2,909 ? -33.0°
